Location: Hilton Head Island
(32.2163°N, 80.7526°W)
Time: 08:54:38
(UTC-04:00)

Vanguard 1 - Pass Details

Date: 24 February 2026
Orbit: 653 x 3818 km, 34.2° (Epoch: 17 March)

Event Time Altitude Azimuth Distance (km) Brightness Sun altitude
Rises 21:16:11 0° 285° (WNW) 6,467 15.2 -38.4°
Reaches altitude 10° 21:20:27 10° 277° (W) 5,824 14.7 -39.3°
Maximum altitude 21:37:15 37° 219° (SW) 4,856 13.5 -42.7°
Enters shadow 21:50:26 22° 173° (S) 5,886 13.7 -45.3°
Drops below altitude 10° 21:57:07 10° 161° (SSE) 6,736 - -46.6°
Sets 22:02:45 0° 153° (SSE) 7,528 - -47.7°
